{"data":{"norad_id":49313,"epoch":"2026-09-20T05:09:53.545248Z","epoch_age_seconds":50290,"freshness":"FRESH","line1":"1 49313U 21090AL  26263.21520307  .00000089  00000+0  18574-3 0  9995","line2":"2 49313  87.9148 255.4909 0002122  97.3639 262.7735 13.20772891242366","mean_motion":13.20772891,"eccentricity":0.0002122,"inclination_deg":87.9148,"raan_deg":255.4909,"arg_perigee_deg":97.3639,"mean_anomaly_deg":262.7735,"bstar":0.00018574,"rev_number":24236,"period_min":109.02707118025,"perigee_km":1180.1650468268,"apogee_km":1183.3734710431,"semimajor_km":7559.906258935,"source":"CELESTRAK","updated_at":"2026-09-20T09:00:44.675950Z"}}